Morganton, NC

11:15 PM EDT on March 24, 2017 (GMT -0400)
Morganton-Lenoir

Weather History for KMRN - April, 2013

Change the Weather History Date:

Tuesday, April 16, 2013

  Actual Average (KHKY) Record (KHKY)
Temperature  
Mean Temperature 66 °F -  
Max Temperature 78 °F 70 °F 89 °F (2006)
Min Temperature 55 °F 46 °F 27 °F (1950)
Cooling Degree Days 2    
Growing Degree Days 16 (Base 50)    
Moisture  
Dew Point 57 °F    
Average Humidity 77    
Maximum Humidity 100    
Minimum Humidity 45    
Precipitation  
Precipitation 0.00 in - - ()
Sea Level Pressure  
Sea Level Pressure 30.28 in    
Wind  
Wind Speed 2 mph (SE)    
Max Wind Speed 9 mph    
Max Gust Speed -    
Visibility 8 miles    
Events Rain    
Averages and records for this station are not official NWS values.
T = Trace of Precipitation, MM = Missing Value Source: NWS Daily Summary

Daily Weather History Graph

Daily Weather History Graph

Search for Another Location

Airport or City:

Trip Planner

Search our weather history database for the weather conditions in past years. The results will help you decide how hot, cold, wet, or windy it might be!

Date:

Astronomy

Apr. 16, 2013 Rise Set
Actual Time 6:51 AM EDT 8:00 PM EDT
Civil Twilight 6:25 AM EDT 8:27 PM EDT
Nautical Twilight 5:54 AM EDT 8:58 PM EDT
Astronomical Twilight 5:21 AM EDT 9:31 PM EDT
Moon 11:14 AM EDT (4/16) 12:52 AM EDT (4/16)
Length of Visible Light 14h 01m
Length of Day
13h 08m
Waxing Crescent, 33% of the Moon is Illuminated
Apr 16
Waxing Crescent
Apr 18
First Quarter
Apr 25
Full
May 2
Last Quarter
May 9
New

Hourly Weather History & Observations

Time (EDT) Temp. Dew Point Humidity Pressure Visibility Wind Dir Wind Speed Gust Speed Precip Events Conditions
12:15 AM 56.8 °F 56.3 °F 98% 30.27 in 7.0 mi North 3.5 mph - N/A   Overcast
12:35 AM 56.8 °F 56.3 °F 98% 30.28 in 5.0 mi North 4.6 mph - N/A   Overcast
12:55 AM 56.8 °F 56.3 °F 98% 30.28 in 5.0 mi Calm Calm - N/A   Overcast
1:15 AM 56.8 °F 56.5 °F 99% 30.28 in 5.0 mi North 3.5 mph - N/A   Overcast
1:35 AM 56.8 °F 56.3 °F 98% 30.27 in 5.0 mi Calm Calm - N/A   Overcast
1:55 AM 56.8 °F 56.3 °F 98% 30.27 in 5.0 mi North 3.5 mph - N/A   Overcast
2:15 AM 56.7 °F 56.3 °F 99% 30.27 in 5.0 mi Calm Calm - N/A   Overcast
2:35 AM 56.8 °F 56.3 °F 98% 30.27 in 5.0 mi Calm Calm - N/A   Overcast
2:55 AM 56.8 °F 56.3 °F 98% 30.27 in 5.0 mi Calm Calm - N/A   Overcast
3:15 AM 56.7 °F 56.3 °F 99% 30.27 in 7.0 mi Calm Calm - N/A   Overcast
3:35 AM 56.7 °F 56.3 °F 99% 30.27 in 7.0 mi Calm Calm - N/A   Overcast
3:55 AM 56.7 °F 56.3 °F 99% 30.27 in 7.0 mi Calm Calm - N/A   Overcast
4:15 AM 56.7 °F 55.9 °F 97% 30.27 in 7.0 mi Calm Calm - N/A   Overcast
4:35 AM 56.7 °F 56.3 °F 99% 30.27 in 7.0 mi Calm Calm - N/A   Overcast
4:55 AM 56.5 °F 56.3 °F 99% 30.27 in 7.0 mi Calm Calm - N/A   Overcast
5:15 AM 56.3 °F 56.1 °F 99% 30.27 in 7.0 mi Calm Calm - N/A   Overcast
5:35 AM 56.3 °F 56.3 °F 100% 30.27 in 7.0 mi Calm Calm - N/A   Overcast
5:55 AM 56.3 °F 56.3 °F 100% 30.27 in 7.0 mi Calm Calm - N/A   Overcast
6:15 AM 55.8 °F 55.8 °F 100% 30.27 in 5.0 mi Calm Calm - N/A   Overcast
6:35 AM 55.9 °F 55.9 °F 100% 30.28 in 5.0 mi Calm Calm - N/A   Overcast
6:55 AM 56.3 °F 56.3 °F 100% 30.29 in 7.0 mi Calm Calm - N/A   Overcast
7:15 AM 56.3 °F 56.3 °F 100% 30.29 in 4.0 mi Calm Calm - N/A   Overcast
7:35 AM 56.3 °F 56.3 °F 100% 30.30 in 7.0 mi Calm Calm - N/A   Overcast
8:15 AM 57.2 °F 56.8 °F 99% 30.32 in 7.0 mi Calm Calm - N/A Rain Rain
8:35 AM 57.4 °F 56.8 °F 98% 30.32 in 7.0 mi Calm Calm - N/A   Overcast
8:55 AM 57.4 °F 56.7 °F 97% 30.33 in 7.0 mi Calm Calm - N/A   Overcast
9:15 AM 57.6 °F 56.8 °F 97% 30.34 in 7.0 mi Calm Calm - N/A   Overcast
9:35 AM 58.5 °F 56.8 °F 94% 30.34 in 10.0 mi Calm Calm - N/A   Overcast
9:55 AM 59.9 °F 57.6 °F 92% 30.34 in 10.0 mi Calm Calm - N/A   Mostly Cloudy
10:15 AM 62.2 °F 56.7 °F 82% 30.34 in 10.0 mi SE 3.5 mph - N/A   Scattered Clouds
10:35 AM 63.7 °F 57.9 °F 81% 30.34 in 10.0 mi SE 4.6 mph - N/A   Clear
10:55 AM 65.1 °F 57.9 °F 77% 30.34 in 10.0 mi SE 3.5 mph - N/A   Clear
11:15 AM 65.8 °F 57.6 °F 75% 30.35 in 10.0 mi SSE 4.6 mph - N/A   Scattered Clouds
11:35 AM 67.8 °F 57.6 °F 70% 30.34 in 10.0 mi SSW 3.5 mph - N/A   Scattered Clouds
11:55 AM 69.6 °F 57.7 °F 66% 30.34 in 10.0 mi SSW 5.8 mph - N/A   Scattered Clouds
12:15 PM 70.3 °F 57.4 °F 63% 30.34 in 10.0 mi SSW 6.9 mph - N/A   Scattered Clouds
12:35 PM 71.4 °F 57.4 °F 61% 30.33 in 10.0 mi Calm Calm - N/A   Scattered Clouds
12:55 PM 73.4 °F 57.6 °F 58% 30.32 in 10.0 mi South 6.9 mph - N/A   Clear
1:15 PM 74.5 °F 56.3 °F 53% 30.31 in 10.0 mi South 5.8 mph - N/A   Clear
1:35 PM 74.7 °F 54.7 °F 50% 30.30 in 10.0 mi Calm Calm - N/A   Clear
1:55 PM 75.0 °F 55.0 °F 50% 30.29 in 10.0 mi SE 3.5 mph - N/A   Clear
2:15 PM 75.9 °F 55.0 °F 48% 30.28 in 10.0 mi SSE 5.8 mph - N/A   Scattered Clouds
2:35 PM 76.3 °F 55.9 °F 49% 30.28 in 10.0 mi ENE 4.6 mph - N/A   Mostly Cloudy
2:55 PM 75.9 °F 55.8 °F 49% 30.27 in 10.0 mi SSE 3.5 mph - N/A   Mostly Cloudy
3:15 PM 76.6 °F 55.9 °F 49% 30.27 in 10.0 mi Calm Calm - N/A   Mostly Cloudy
3:35 PM 77.0 °F 56.3 °F 49% 30.26 in 10.0 mi ESE 5.8 mph - N/A   Mostly Cloudy
3:55 PM 78.3 °F 55.9 °F 46% 30.24 in 10.0 mi SE 9.2 mph - N/A   Mostly Cloudy
4:15 PM 77.9 °F 55.6 °F 46% 30.23 in 10.0 mi SSE 3.5 mph - N/A   Mostly Cloudy
4:35 PM 77.4 °F 55.6 °F 47% 30.23 in 10.0 mi ESE 4.6 mph - N/A   Mostly Cloudy
4:55 PM 77.2 °F 56.1 °F 48% 30.23 in 10.0 mi SSE 5.8 mph - N/A   Mostly Cloudy
5:15 PM 78.4 °F 55.8 °F 45% 30.23 in 10.0 mi SE 8.1 mph - N/A   Mostly Cloudy
5:35 PM 77.2 °F 55.6 °F 47% 30.23 in 10.0 mi SSE 4.6 mph - N/A   Scattered Clouds
5:55 PM 76.3 °F 55.6 °F 49% 30.23 in 10.0 mi SE 5.8 mph - N/A   Clear
6:15 PM 76.5 °F 55.6 °F 48% 30.23 in 10.0 mi SE 6.9 mph - N/A   Clear
6:35 PM 76.6 °F 55.6 °F 48% 30.23 in 10.0 mi SE 8.1 mph - N/A   Clear
6:55 PM 75.2 °F 55.9 °F 51% 30.23 in 10.0 mi SE 3.5 mph - N/A   Clear
7:15 PM 73.9 °F 56.5 °F 54% 30.24 in 10.0 mi SSE 4.6 mph - N/A   Mostly Cloudy
7:35 PM 72.5 °F 58.1 °F 60% 30.24 in 10.0 mi SSE 3.5 mph - N/A   Overcast
7:55 PM 70.5 °F 58.1 °F 65% 30.24 in 10.0 mi SSE 3.5 mph - N/A   Scattered Clouds
8:15 PM 69.1 °F 57.9 °F 68% 30.25 in 10.0 mi SSE 3.5 mph - N/A   Scattered Clouds
8:35 PM 67.8 °F 57.9 °F 71% 30.25 in 10.0 mi SE 3.5 mph - N/A   Mostly Cloudy
8:55 PM 68.7 °F 57.6 °F 67% 30.26 in 10.0 mi Calm Calm - N/A   Overcast
9:15 PM 65.7 °F 59.9 °F 82% 30.27 in 10.0 mi SSE 3.5 mph - N/A   Overcast
9:35 PM 67.6 °F 57.4 °F 70% 30.27 in 10.0 mi SSE 3.5 mph - N/A   Overcast
9:55 PM 66.6 °F 57.4 °F 72% 30.28 in 10.0 mi Calm Calm - N/A   Mostly Cloudy
10:15 PM 65.7 °F 57.0 °F 74% 30.28 in 10.0 mi Calm Calm - N/A   Scattered Clouds
10:35 PM 62.6 °F 57.2 °F 82% 30.28 in 10.0 mi Calm Calm - N/A   Clear
10:55 PM 61.5 °F 57.7 °F 87% 30.28 in 10.0 mi Calm Calm - N/A   Clear
11:15 PM 59.2 °F 56.3 °F 90% 30.28 in 10.0 mi Calm Calm - N/A   Clear
11:35 PM 58.6 °F 56.7 °F 93% 30.28 in 10.0 mi Calm Calm - N/A   Mostly Cloudy
11:55 PM 59.4 °F 57.4 °F 93% 30.28 in 10.0 mi Calm Calm - N/A   Overcast